Location: Drummondville
(45.8830°N, 72.4830°W)
Time: 12:16:43
(UTC-05:00)

Tiangong 2 - Pass Details

Date: 11 November 2017
Orbit: 386 x 391 km, 42.8° (Epoch: 17 November)

Event Time Altitude Azimuth Distance (km) Brightness Sun altitude
Rises 17:37:01 0° 271° (W) 2,276 6.7 -13.1°
Reaches altitude 10° 17:39:23 10° 255° (WSW) 1,417 5.4 -13.5°
Maximum altitude 17:41:56 22° 203° (SSW) 908 3.3 -13.9°
Drops below altitude 10° 17:44:28 10° 150° (SSE) 1,411 3.7 -14.4°
Enters shadow 17:44:54 - 145° (SE) 1,557 3.9 -14.4°
